Weather in Andryushino

Russia / Tyumen Oblast     57°45′27″N   65°57′35″E
temp.,
°C
wind,
m/s
gust,
m/s
humid.,
%
clouds,
%
prec.,
mm/h
press.,
hPa
HPBL,
m
13 may, thu
thu1323:00+14wsw2257100 0.0 102536
02:00+15wsw31155100 0.0 1023296
05:00+13w3106586 0.0 1023222
08:00+18wnw495435 0.0 1023449
11:00+24nw584096 0.0 10221871
14:00+26nnw693243 0.0 10212777
17:00+23n494634 0.0 10231240
20:00+20ene22555 0.0 102414
14 may, fri
fri1423:00+16e23585 0.0 102542
02:00+13se22575 0.0 102637
05:00+13s24635 0.0 102668
08:00+19ssw365594 0.0 1025368
11:00+26sw46385 0.0 10241147
14:00+29w57265 0.0 10222873
17:00+29w58245 0.0 10213127
20:00+24wsw33415 0.0 102039
15 may, sat
sat1523:00+20wsw36475 0.0 101987
02:00+18wsw412475 0.0 1019214
05:00+17wsw312595 0.0 1019232
08:00+22w5950100 0.0 1019400
11:00+27w6103760 0.0 10181968
14:00+29wnw7112975 0.0 10173153
17:00+29wnw61030100 0.0 10173367
20:00+25wnw5114335 0.0 1016509
16 may, sun
sun1623:00+17wnw3107590 2.1 1018227
02:00+16nw258246 0.0 101889
05:00+15w22885 0.0 101920
08:00+21w23625 0.0 1019345
11:00+27wsw453955 0.0 10181208
14:00+30w58275 0.0 10162245
17:00+30w4925100 0.0 10162243
20:00+24wsw353928 0.0 101565
17 may, mon
mon1723:00+21wsw3104019 0.0 1015144
02:00+19w312495 0.0 1015202
05:00+18wsw310575 0.0 1015183
08:00+24wsw59435 0.0 1014409
11:00+29w611290 0.0 10142895
14:00+31w6102193 0.0 10124007
17:00+29wnw51126100 0.0 10102805
20:00+20wnw3951100 0.1 1011179